DW4360 Weather Reports


time (UTC)temp
C
wind
direction
speed
KPH
gust
KPH
rain 1hr
cm
rain 24hr
cm
rain mn
cm
humidity
%
barometer
mb
20260510122757 12 329 0.0 0.0 0.00 0.00 0.00 84 1016.5
20260510121756 12 329 0.0 0.0 0.00 0.00 0.00 83 1016.6
20260510120755 13 329 0.0 0.0 0.00 0.00 0.00 83 1016.5
20260510115754 13 329 0.0 0.0 0.00 0.00 0.00 83 1016.5
20260510114753 13 329 0.0 0.0 0.00 0.00 0.00 83 1016.4
20260510113752 13 329 0.0 0.0 0.00 0.00 0.00 83 1016.1
20260510112751 13 329 0.0 0.0 0.00 0.00 0.00 83 1016.3
20260510111750 13 329 0.0 0.0 0.00 0.00 0.00 82 1016.3
20260510110749 13 329 0.0 0.0 0.00 0.00 0.00 82 1015.9
20260510105748 13 329 0.0 0.0 0.00 0.00 0.00 83 1016.0
20260510104747 13 326 3.2 0.0 0.00 0.00 0.00 83 1015.9
20260510103746 13 330 0.0 0.0 0.00 0.00 0.00 83 1015.7
20260510102745 13 332 0.0 0.0 0.00 0.00 0.00 82 1015.4
20260510100743 14 332 0.0 0.0 0.00 0.00 0.00 79 1015.1
20260510095741 14 332 0.0 0.0 0.00 0.00 0.00 79 1014.8
20260510094741 14 332 0.0 0.0 0.00 0.00 0.00 80 1014.8
20260510092739 14 332 0.0 0.0 0.00 0.00 0.00 78 1015.0
20260510091737 14 332 0.0 0.0 0.00 0.00 0.00 77 1015.0
20260510090736 15 332 0.0 0.0 0.00 0.00 0.00 76 1014.9
20260510085735 15 332 0.0 0.0 0.00 0.00 0.00 75 1014.8
20260510084735 15 332 0.0 0.0 0.00 0.00 0.00 75 1014.8
20260510083734 15 332 0.0 0.0 0.00 0.00 0.00 74 1014.5
20260510082732 15 332 0.0 0.0 0.00 0.00 0.00 73 1014.5
20260510080730 16 332 0.0 0.0 0.00 0.00 0.00 72 1014.4
20260510075729 16 332 0.0 0.0 0.00 0.00 0.00 71 1014.5
20260510074728 16 332 0.0 0.0 0.00 0.00 0.00 70 1014.5
20260510072727 16 332 0.0 0.0 0.00 0.00 0.00 68 1014.4
20260510071725 17 332 0.0 0.0 0.00 0.00 0.00 67 1014.4
20260510070725 17 332 0.0 0.0 0.00 0.00 0.00 65 1014.4
20260510064723 18 332 0.0 0.0 0.00 0.00 0.00 63 1014.3
20260510061719 18 332 0.0 0.0 0.00 0.00 0.00 58 1014.2
20260510060718 18 332 0.0 0.0 0.00 0.00 0.00 58 1014.2
20260510055717 19 333 6.4 0.0 0.00 0.00 0.00 57 1014.2
20260510054716 19 320 0.0 0.0 0.00 0.00 0.00 57 1014.1
20260510053715 20 320 0.0 0.0 0.00 0.00 0.00 56 1014.1
20260510052714 20 320 0.0 0.0 0.00 0.00 0.00 56 1014.0
20260510050712 20 326 4.8 0.0 0.00 0.00 0.00 55 1014.2
20260510045711 20 323 0.0 0.0 0.00 0.00 0.00 55 1014.1
20260510043709 20 319 3.2 0.0 0.00 0.00 0.00 55 1013.9
20260510042708 20 342 0.0 0.0 0.00 0.00 0.00 54 1013.8
20260510041707 21 336 1.6 0.0 0.00 0.00 0.00 54 1013.6
20260510040706 21 312 0.0 0.0 0.00 0.00 0.00 53 1013.5
20260510035705 21 315 0.0 0.0 0.00 0.00 0.00 52 1013.3
20260510034704 21 315 3.2 0.0 0.00 0.00 0.00 51 1013.2
20260510033703 21 323 12.9 0.0 0.00 0.00 0.00 50 1013.2
20260510032702 21 330 0.0 0.0 0.00 0.00 0.00 49 1013.2
20260510030700 22 321 0.0 0.0 0.00 0.00 0.00 47 1013.1
20260510024658 22 311 0.0 0.0 0.00 0.00 0.00 46 1013.1
20260510023657 23 319 0.0 0.0 0.00 0.00 0.00 45 1013.1
20260510021655 23 318 0.0 0.0 0.00 0.00 0.00 43 1013.2
20260510020654 23 320 6.4 0.0 0.00 0.00 0.00 41 1013.1
20260510015653 24 319 0.0 0.0 0.00 0.00 0.00 40 1013.1
20260510014652 24 330 0.0 0.0 0.00 0.00 0.00 36 1013.2
20260510013651 25 317 1.6 0.0 0.00 0.00 0.00 34 1013.3
20260510012650 25 314 4.8 0.0 0.00 0.00 0.00 35 1013.4
20260510011649 25 318 4.8 0.0 0.00 0.00 0.00 36 1013.5
20260510010648 26 323 4.8 0.0 0.00 0.00 0.00 33 1013.5
20260510005647 26 329 4.8 0.0 0.00 0.00 0.00 34 1013.5
20260510004646 26 297 0.0 0.0 0.00 0.00 0.00 30 1013.6
20260510003645 27 313 0.0 0.0 0.00 0.00 0.00 27 1013.6
20260510001643 28 320 4.8 0.0 0.00 0.00 0.00 24 1013.7
20260510000642 29 325 0.0 0.0 0.00 0.00 0.00 24 1013.6
20260509235641 29 13 0.0 0.0 0.00 0.00 0.00 24 1013.8
20260509234640 29 320 0.0 0.0 0.00 0.00 0.00 26 1013.9
20260509233639 28 322 0.0 0.0 0.00 0.00 0.00 27 1014.0
20260509232638 28 345 0.0 0.0 0.00 0.00 0.00 28 1014.0
20260509230636 28 342 0.0 0.0 0.00 0.00 0.00 30 1014.2
20260509225635 28 327 1.6 0.0 0.00 0.00 0.00 29 1014.6
20260509224633 28 325 0.0 0.0 0.00 0.00 0.00 28 1014.8
20260509223633 28 335 0.0 0.0 0.00 0.00 0.00 28 1014.9
20260509222632 27 9 0.0 0.0 0.00 0.00 0.00 30 1015.1
20260509221631 27 350 0.0 0.0 0.00 0.00 0.00 32 1015.4
20260509220629 27 328 0.0 0.0 0.00 0.00 0.00 32 1015.5
20260509215629 27 316 0.0 0.0 0.00 0.00 0.00 30 1015.7
20260509214627 26 317 1.6 0.0 0.00 0.00 0.00 32 1015.8
20260509213627 27 327 0.0 0.0 0.00 0.00 0.00 34 1015.9
20260509212625 26 333 0.0 0.0 0.00 0.00 0.00 34 1016.1
20260509211624 27 314 0.0 0.0 0.00 0.00 0.00 36 1016.1
20260509210624 26 344 8.0 0.0 0.00 0.00 0.00 39 1016.2
20260509205623 26 317 0.0 0.0 0.00 0.00 0.00 40 1016.1
20260509204621 25 329 0.0 0.0 0.00 0.00 0.00 43 1016.3
20260509202620 25 324 3.2 0.0 0.00 0.00 0.00 43 1016.5
20260509201619 25 320 0.0 0.0 0.00 0.00 0.00 44 1016.6
20260509200618 24 323 0.0 0.0 0.00 0.00 0.00 46 1016.9
20260509195616 23 336 0.0 0.0 0.00 0.00 0.00 47 1017.0
20260509193615 23 305 0.0 0.0 0.00 0.00 0.00 49 1017.2
20260509192613 23 347 0.0 0.0 0.00 0.00 0.00 49 1017.4
20260509191612 23 337 8.0 0.0 0.00 0.00 0.00 51 1017.5
20260509190612 22 320 0.0 0.0 0.00 0.00 0.00 53 1017.6
20260509185610 22 317 0.0 0.0 0.00 0.00 0.00 55 1017.8
20260509184609 22 320 0.0 0.0 0.00 0.00 0.00 55 1018.0
20260509183609 21 326 9.7 0.0 0.00 0.00 0.00 57 1018.1
20260509182607 21 78 0.0 0.0 0.00 0.00 0.00 58 1018.2
20260509181606 20 150 3.2 0.0 0.00 0.00 0.00 59 1018.3
20260509180605 19 314 0.0 0.0 0.00 0.00 0.00 63 1018.3
20260509175604 18 327 0.0 0.0 0.00 0.00 0.00 67 1018.3
20260509174603 18 348 0.0 0.0 0.00 0.00 0.00 68 1018.5
20260509173602 17 319 0.0 0.0 0.00 0.00 0.00 71 1018.6
20260509172601 16 322 0.0 0.0 0.00 0.00 0.00 73 1018.8
20260509171600 15 307 0.0 0.0 0.00 0.00 0.00 76 1019.1
20260509170559 15 165 0.0 0.0 0.00 0.00 0.00 77 1019.2
20260509165558 15 126 6.4 0.0 0.00 0.00 0.00 79 1019.3
20260509164557 14 323 0.0 0.0 0.00 0.00 0.00 80 1019.4
20260509163556 13 318 8.0 0.0 0.00 0.00 0.00 81 1019.5
20260509162555 13 325 0.0 0.0 0.00 0.00 0.00 81 1019.8
20260509161554 13 334 0.0 0.0 0.00 0.00 0.00 83 1019.9
20260509160553 13 323 0.0 0.0 0.00 0.00 0.00 85 1019.9
20260509153550 12 130 0.0 0.0 0.00 0.00 0.00 87 1020.0
20260509152549 12 313 0.0 0.0 0.00 0.00 0.00 88 1020.2
20260509151548 11 313 0.0 0.0 0.00 0.00 0.00 89 1020.3
20260509150547 11 313 0.0 0.0 0.00 0.00 0.00 89 1020.4
20260509145546 11 319 0.0 0.0 0.00 0.00 0.00 91 1020.4
20260509142543 10 350 0.0 0.0 0.00 0.00 0.00 93 1020.2
20260509141542 10 360 0.0 0.0 0.00 0.00 0.00 92 1020.3
20260509140541 10 360 0.0 0.0 0.00 0.00 0.00 92 1020.2
20260509135540 9 360 0.0 0.0 0.00 0.00 0.00 91 1020.2
20260509133538 9 360 0.0 0.0 0.00 0.00 0.00 91 1019.9
20260509132537 9 360 0.0 0.0 0.00 0.00 0.00 90 1020.0
20260509131536 9 360 0.0 0.0 0.00 0.00 0.00 90 1020.0
20260509130535 9 360 0.0 0.0 0.00 0.00 0.00 90 1020.0
20260509125534 9 360 0.0 0.0 0.00 0.00 0.00 89 1019.9